Regional Weather Roundup
Issued by NWS

Home | Current Version | Previous Version | Graphics & Text | Print | Product List | Glossary On
Versions: 1 2 3 4 5 6 7 8 9 10 11 12 13 14 15 16 17 18 19 20 21 22 23 24 25 26 27 28 29 30 31 32 33 34 35 36 37 38 39 40 41 42 43 44 45 46 47 48 49 50
000
ASUS43 KLMK 222302
RWRKY
KENTUCKY REGIONAL WEATHER ROUNDUP
NATIONAL WEATHER SERVICE LOUISVILLE KY
600 PM EST THU FEB 22 2018

NOTE "FAIR" INDICATES FEW OR NO CLOUDS BELOW 12,000 FEET
WITH NO SIGNIFICANT WEATHER AND/OR OBSTRUCTIONS TO VISIBILITY.

KYZ001>023-026-027-061>063-070>075-230000-
WESTERN AND SOUTH CENTRAL KENTUCKY

CITY           SKY/WX    TMP DP  RH WIND       PRES   REMARKS
PADUCAH        CLOUDY    51  47  86 W3        30.31R
HENDERSON      CLOUDY    51  49  92 W5        30.33R
OWENSBORO      CLOUDY    52  49  89 VRB5      30.31S
HOPKINSVILLE   CLOUDY    57  55  93 SE3       30.29S
BOWLING GREEN  CLOUDY    60  59  96 S6        30.32R
GLASGOW        NOT AVBL
$$

KYZ024-025-028>034-038-045-046-053-230000-
NORTH CENTRAL KENTUCKY

CITY           SKY/WX    TMP DP  RH WIND       PRES   REMARKS
LOUISVILLE/SDF CLOUDY    50  48  93 E7        30.34S FOG
LOUISVILLE/LOU CLOUDY    49  49 100 E7        30.35S FOG
FORT KNOX      CLOUDY    48  48 100 E7        30.33S FOG
$$

KYZ035>037-039>044-047>052-055>060-089>105-230000-
NORTHEAST KENTUCKY

CITY           SKY/WX    TMP DP  RH WIND       PRES   REMARKS
LEXINGTON      CLOUDY    50  47  89 E6        30.36R
COVINGTON      CLOUDY    45  43  93 E13       30.35F
FRANKFORT      CLOUDY    49  45  86 E7        30.35R
$$

KYZ054-064>069-076>088-106>120-230000-
SOUTHEAST KENTUCKY

CITY           SKY/WX    TMP DP  RH WIND       PRES   REMARKS
JACKSON        FAIR      57  54  89 VRB3      30.36S
LONDON         FAIR      67  60  78 NW6       30.34R
SOMERSET       NOT AVBL
MIDDLESBORO    CLOUDY    70  62  76 CALM      30.34R
MONTICELLO     NOT AVBL
$$





USA.gov is the U.S. government's official web portal to all federal, state and local government web resources and services.